Tracking 18945 objects as of 19-Jan-2018
HD Live streaming from Space Station
objects crossing your sky now

JILIN 1

Track JILIN 1 now!
10-day predictions


NORAD ID: 40961
Int'l Code: 2015-057D
Perigee: 643.0 km
Apogee: 670.9 km
Inclination: 98.0 °
Period: 97.7 minutes
Semi major axis: 7027 km
RCS: Unknown
Launch date: October 7, 2015
Source: People's Republic of China (PRC)
Launch site: Jiuquan Satellite Launch Center, China (JSC)

JILIN 1 is a Chinese satellite designed for engineering tests.
aabbcc
Your satellite tracking list
Your tracking list is empty




NASA's NSSDC Master Catalog

Two Line Element Set (TLE):
1 40961U 15057D   18019.06392690  .00000056  00000-0  16226-4 0  9994
2 40961  97.9596  96.0474 0019859  97.6947 262.6505 14.73543735122947
Source of the keplerian elements: AFSPC